Temperature
16 14 14 15 15 17 18 18 18 18 19 19 18 17 17 17 18 18 18 18 19 19 20 20 20 21 21 21 21 21 20 20 20 19 19 18 18 18 17 17 17 17 17 16
15 15 16 16 16 17 17 18 18 18 19 19 18 17 17 16 16 17 16 17 17 18 19 19 20 20 20 20 20 20 20 20 20 19 19 18 18 17 17 17 17 16 16 16
16 16 17 17 17 17 17 17 18 18 18 19 18 17 17 17 16 16 15 15 16 16 17 18 19 19 19 19 19 19 19 19 19 19 18 18 17 17 17 16 16 16 15 15
16 16 17 18 17 17 17 18 18 18 18 17 18 17 16 16 16 15 14 14 15 15 16 16 17 18 18 18 18 18 18 18 18 18 18 18 17 16 16 16 15 15 15 15
17 17 17 17 18 17 17 18 18 18 18 17 17 16 15 16 16 15 14 13 14 14 15 15 16 16 17 17 17 18 17 17 17 17 17 17 16 16 15 15 15 14 14 14
17 17 18 18 18 18 18 18 17 15 15 16 17 16 16 15 15 15 14 13 13 13 14 14 14 15 16 16 16 17 17 16 16 16 16 16 15 15 14 14 14 13 13 13
16 17 17 18 18 18 17 16 15 16 15 16 16 15 15 15 15 14 13 12 12 13 13 13 14 14 14 15 15 15 16 15 15 15 15 15 14 14 14 13 13 12 12 12
15 15 17 17 18 17 17 16 15 16 16 15 15 15 15 14 13 13 12 12 12 12 12 12 13 13 13 13 14 14 14 14 14 14 14 14 13 13 12 12 12 11 11 11
15 16 17 17 17 17 17 15 15 15 16 15 14 15 14 14 13 12 12 11 11 11 11 11 12 12 12 12 12 13 13 13 13 13 13 12 12 12 11 11 11 10 10 9
16 16 16 16 16 16 16 14 13 14 15 15 15 15 15 14 13 12 11 11 11 11 10 10 11 11 11 11 11 11 12 12 11 11 11 11 10 10 10 9 9 9 8 7
15 14 15 15 14 15 15 15 13 12 13 14 14 14 14 14 13 12 11 10 10 10 10 10 10 10 10 10 10 10 10 10 10 10 10 9 9 9 8 8 7 7 7 6
14 12 13 15 15 15 15 14 13 14 14 13 13 13 13 13 12 11 10 10 10 10 10 9 9 9 9 9 9 9 9 9 9 8 8 8 7 7 7 7 6 6 6 5
14 12 13 14 14 14 14 14 13 11 11 12 13 13 12 12 11 10 10 9 9 9 9 9 8 8 8 8 8 8 8 8 7 7 7 7 6 6 6 6 5 5 5 5
13 11 12 13 13 13 13 13 13 12 12 12 13 13 12 11 11 10 9 9 9 8 8 8 8 8 7 7 7 7 7 7 7 6 6 6 5 5 5 5 5 4 4 4
12 12 12 13 13 13 13 13 13 13 13 13 13 13 12 11 10 9 9 8 8 8 8 8 7 7 7 7 6 6 6 6 6 6 5 5 5 4 4 4 4 4 4 3
10 12 12 12 13 13 12 12 12 12 12 12 12 12 11 10 10 9 9 8 8 7 7 7 7 7 6 6 6 6 5 5 5 5 5 4 4 4 4 4 4 3 3 3
10 11 11 12 13 13 11 11 11 11 11 12 12 11 10 10 9 9 8 8 7 7 7 7 6 6 6 6 5 5 5 5 5 4 4 4 4 4 3 3 3 3 3 2
10 9 9 10 12 12 11 12 11 11 10 10 10 10 9 9 8 8 8 8 7 7 6 6 6 6 5 5 5 5 5 4 4 4 4 3 3 3 3 3 3 3 2 2
9 10 9 9 11 11 12 12 11 11 10 10 9 9 8 8 8 7 7 7 7 6 6 6 6 5 5 5 5 5 4 4 4 4 3 3 3 3 3 3 3 2 2 2
9 9 9 10 11 11 11 11 11 11 10 9 9 8 8 8 8 7 7 6 6 6 6 6 5 5 5 5 5 4 4 4 4 3 3 3 3 3 3 3 2 2 2 2
10 9 9 9 10 10 11 10 11 11 10 9 9 8 8 7 7 7 6 6 6 6 5 5 5 5 5 4 4 4 4 4 4 3 3 3 3 3 3 3 2 2 2 2
10 10 9 8 10 10 10 10 10 9 9 9 8 8 7 7 6 6 6 6 5 5 5 5 5 4 4 4 4 4 4 4 3 3 3 3 3 3 3 3 3 2 2 2
9 9 8 8 8 9 9 9 9 10 9 9 8 8 7 6 6 6 5 5 5 5 5 5 5 4 4 4 4 4 4 4 4 4 3 3 3 3 3 3 3 2 2 2
10 8 8 8 9 9 9 9 9 10 9 9 8 8 7 6 6 6 5 5 5 5 5 5 4 4 4 4 4 4 4 4 4 4 4 4 3 3 3 3 3 2 2 2
10 9 8 8 8 8 9 9 9 9 9 8 7 7 7 7 6 6 5 5 5 5 5 4 4 4 4 4 4 4 4 4 4 4 4 4 4 3 3 3 3 2 2 1
9 8 8 8 9 8 8 9 9 9 8 8 7 6 6 6 6 5 5 5 5 5 5 4 4 4 4 4 4 4 4 4 4 4 4 4 4 4 3 3 3 2 2 1
Wind_Speed
4 4 4 7 8 6 3 2 5 7 5 2 2 4 7 8 6 5 4 3 1 2 2 0 3 4 7 8 9 11 10 9 10 8 7 5 4 4 4 4 4 4 4 5
4 3 8 6 5 4 4 3 5 7 3 1 1 4 6 9 9 8 8 6 5 5 6 5 3 3 5 6 7 8 9 10 10 8 7 4 5 4 4 5 6 6 5 5
6 6 3 4 4 4 5 5 6 6 6 3 2 4 6 7 10 12 12 10 10 9 7 7 6 4 3 4 5 6 6 7 8 8 7 7 6 4 3 4 4 5 7 7
5 6 3 4 5 6 5 8 7 5 1 3 2 1 3 4 10 12 13 12 12 12 10 9 9 7 7 5 5 6 6 6 7 8 9 9 6 5 4 5 5 6 9 9
5 4 4 5 7 8 8 5 4 3 4 1 2 4 2 2 6 9 11 12 12 12 12 11 10 9 9 8 7 7 8 7 6 6 7 8 7 7 7 7 9 8 8 11
6 4 4 6 5 6 5 4 5 5 4 0 2 5 1 2 2 5 9 11 12 13 13 13 13 13 12 11 10 9 10 9 8 9 9 9 11 10 10 9 8 8 7 8
6 5 3 2 1 1 4 5 4 3 3 3 1 6 3 4 6 7 8 10 11 12 13 13 14 14 13 13 12 12 13 12 11 13 12 12 12 12 11 10 10 9 8 9
3 6 4 1 3 3 4 8 7 5 4 1 3 4 4 7 9 10 9 9 11 12 13 14 14 14 14 14 14 13 14 14 14 15 14 13 12 11 10 11 11 11 9 9
1 5 5 3 2 4 4 3 5 6 3 3 2 4 4 7 8 9 9 9 11 11 13 14 14 14 14 15 15 14 15 15 15 16 16 15 14 14 13 13 12 11 10 10
3 3 6 6 6 6 3 6 6 6 5 2 2 3 3 6 7 7 7 8 9 11 12 13 13 14 14 14 15 16 16 17 16 16 15 15 15 14 14 14 14 13 12 11
2 1 6 6 6 5 5 4 5 5 5 6 4 1 1 6 8 9 8 8 9 11 11 12 13 14 14 15 15 16 16 16 16 16 15 16 15 14 14 14 13 12 11 11
2 4 1 2 2 2 3 3 3 4 3 4 5 1 4 7 10 10 10 9 10 11 11 12 13 13 14 15 15 15 15 16 15 15 15 15 14 13 14 14 12 11 11 11
2 4 3 4 6 7 5 4 3 4 5 4 5 4 4 9 10 10 10 10 10 11 12 12 12 13 13 13 14 14 14 14 14 14 14 14 13 13 13 12 11 10 10 9
4 4 3 3 2 2 4 6 3 3 4 4 4 8 7 9 10 10 10 10 11 11 12 12 12 12 12 12 13 13 13 12 13 13 13 13 12 11 11 10 10 9 8 8
5 5 4 4 3 5 6 8 8 5 2 3 6 8 9 10 10 11 11 11 12 12 12 12 12 12 12 12 11 12 12 11 11 12 12 11 10 10 10 9 8 7 7 7
5 4 3 4 5 6 8 11 9 7 5 5 6 4 4 8 9 10 11 11 12 12 12 12 12 12 12 11 10 11 11 10 10 11 10 9 9 9 8 7 7 7 6 5
3 4 3 1 3 3 6 7 6 4 5 2 2 3 6 8 9 9 10 10 12 12 12 12 12 11 10 9 9 10 9 9 9 9 8 8 7 7 6 6 6 6 4 4
4 4 3 2 3 2 1 2 3 4 5 5 5 6 7 8 8 8 8 10 11 12 12 11 11 10 9 9 8 8 8 8 8 8 7 6 6 6 5 5 5 4 3 3
3 5 4 3 3 1 1 2 2 1 3 4 6 8 9 11 10 8 8 11 12 11 11 10 10 9 9 8 8 8 8 7 7 6 5 5 5 5 4 4 3 3 2 3
7 6 5 4 3 1 2 4 3 2 1 2 5 8 8 5 5 5 9 12 12 12 11 10 10 9 8 7 7 8 7 6 5 4 4 3 3 4 3 3 2 2 2 3
5 6 5 3 2 2 3 5 2 1 2 2 5 6 5 3 5 10 12 11 12 11 11 10 10 8 6 6 7 7 6 4 2 3 3 3 3 2 2 2 2 3 3 4
2 3 2 3 1 3 5 3 2 2 1 4 5 6 9 11 13 13 12 12 11 11 10 9 9 7 5 5 7 6 4 2 2 3 3 2 2 2 2 3 3 3 3 4
2 4 4 4 3 3 3 2 2 2 4 4 6 9 13 13 13 13 11 11 10 10 8 7 8 7 5 4 6 5 2 2 2 3 2 2 2 2 2 2 2 2 2 2
1 3 4 2 0 2 3 4 4 4 5 7 9 12 13 13 13 13 11 10 9 8 7 6 8 7 4 3 3 3 2 2 2 2 1 1 1 1 2 1 1 1 1 1
3 4 4 2 2 3 3 3 5 8 10 12 11 10 12 14 13 11 10 9 8 7 5 6 6 5 4 2 2 1 2 2 2 1 1 1 1 1 1 1 0 0 1 2
3 5 6 6 7 6 4 4 6 9 10 11 12 11 10 11 12 10 9 7 7 7 5 6 5 4 3 2 1 0 1 2 2 0 1 1 0 0 0 1 1 2 1 2
Wind_Direction
104 102 195 212 199 197 196 243 284 274 278 319 327 350 0 19 49 53 46 49 66 244 278 274 179 169 172 174 175 177 173 165 162 163 161 157 157 141 125 107 110 130 156 168
56 246 230 210 192 192 211 263 283 291 310 208 47 38 38 45 53 57 53 43 28 14 12 12 40 116 156 166 171 171 169 166 168 171 162 150 134 121 112 96 78 79 93 111
190 237 209 173 197 204 233 219 241 266 331 10 94 33 45 52 57 55 50 46 37 34 28 29 39 54 80 118 145 156 154 156 159 149 132 123 110 103 109 97 81 65 79 80
228 251 213 214 229 188 255 231 219 248 324 302 66 74 17 46 54 50 47 43 38 35 36 36 41 48 54 66 94 113 127 138 142 142 148 149 146 145 124 109 98 74 68 74
243 232 203 223 233 185 221 234 206 225 186 283 23 123 318 34 56 51 47 45 42 40 40 39 38 43 48 55 71 91 100 94 99 116 135 132 121 116 108 100 95 83 69 67
254 258 214 222 240 204 207 76 57 51 86 68 275 133 58 30 65 67 53 48 44 45 44 45 43 47 50 54 64 74 85 84 88 94 96 105 112 113 109 102 96 86 78 70
324 313 285 225 283 22 106 99 42 15 36 247 11 100 89 61 84 85 70 55 49 48 47 48 47 47 49 51 61 70 76 75 75 79 80 89 99 105 106 104 97 91 80 73
350 314 306 296 196 196 161 143 157 181 193 258 31 102 102 88 88 84 76 67 59 54 53 53 52 53 53 53 56 66 74 75 73 76 76 79 86 92 92 91 92 89 86 81
228 285 307 312 276 142 134 158 162 131 133 96 95 110 123 109 98 89 77 68 63 60 60 60 59 59 59 59 58 63 72 73 73 77 79 78 78 84 88 88 86 86 85 83
183 278 313 321 30 27 104 133 97 118 140 151 136 162 168 157 135 112 92 78 70 66 65 64 64 64 64 65 66 66 69 72 71 74 78 82 80 82 84 84 82 82 80 81
128 159 329 17 32 349 25 55 87 104 136 146 162 228 332 166 145 128 110 95 82 76 72 69 69 68 68 67 66 68 69 72 73 74 77 80 79 80 81 80 80 81 80 78
95 115 9 323 305 334 78 78 125 140 154 136 137 142 28 116 122 122 115 103 93 89 85 79 75 72 70 70 70 71 73 74 74 76 77 77 77 78 79 80 79 80 79 77
88 91 55 359 349 4 34 21 62 115 112 133 140 150 99 108 111 117 117 111 104 98 92 86 81 78 76 74 75 74 74 76 77 78 78 78 78 78 78 78 78 79 81 79
102 76 127 169 242 325 15 6 21 100 124 152 160 152 151 138 132 126 120 113 106 101 99 96 90 85 82 79 79 81 78 78 80 81 80 79 77 78 80 80 79 80 83 83
75 74 61 67 70 74 52 26 28 48 87 155 157 155 165 158 144 135 128 122 115 109 104 101 99 95 91 86 82 82 81 79 83 84 82 81 79 79 79 78 77 77 78 82
57 97 74 55 66 75 52 25 25 31 33 79 109 102 118 124 125 131 131 129 123 117 110 105 102 98 95 93 91 87 84 83 85 87 86 84 82 80 79 77 74 70 65 61
58 95 88 54 314 25 27 0 13 30 19 43 116 129 126 125 131 138 136 132 127 122 116 110 106 102 100 96 96 93 91 90 89 89 88 87 86 82 76 77 72 65 55 52
110 91 99 84 55 54 291 349 33 54 32 34 82 106 114 114 103 93 109 119 118 115 111 109 107 104 98 98 97 98 97 96 94 92 90 89 89 84 78 74 67 55 45 40
103 120 99 93 90 48 331 9 2 28 29 47 103 108 110 113 97 79 86 102 107 107 106 105 104 104 102 101 104 102 96 94 94 94 94 95 95 89 76 63 48 34 30 24
52 71 93 94 107 219 283 323 321 112 37 84 117 128 131 122 116 115 109 106 104 102 103 104 102 102 101 100 105 103 100 97 97 98 94 92 93 87 73 56 35 22 33 30
21 33 61 85 96 286 310 315 355 101 263 131 128 132 131 101 114 124 116 107 107 106 106 107 106 104 106 110 108 106 105 106 110 97 89 81 77 85 86 68 47 42 52 48
120 96 94 108 88 280 335 19 92 204 93 106 111 114 111 111 114 116 114 112 112 112 110 110 110 106 105 113 114 113 116 123 94 89 81 61 41 48 91 89 68 60 64 57
129 173 166 166 197 259 342 35 41 120 110 107 114 120 123 122 121 118 116 116 116 114 112 111 114 108 100 109 123 127 149 131 102 84 64 41 36 50 82 102 92 74 67 62
113 125 109 108 115 40 37 48 55 71 95 104 117 123 124 122 123 120 120 118 115 112 112 113 112 111 106 113 123 146 151 128 109 82 43 24 45 45 53 65 92 103 94 63
182 128 109 130 162 105 50 67 89 90 98 104 105 111 123 123 123 122 121 119 117 114 109 114 120 125 132 131 127 155 152 128 97 62 18 16 38 60 46 47 61 194 223 214
192 167 167 206 195 164 162 128 113 112 113 117 114 106 109 119 122 120 118 118 120 121 119 120 124 134 146 149 163 245 160 147 140 8 326 316 285 258 120 59 16 9 349 317
Height
1487 1493 1497 1494 1492 1493 1493 1495 1496 1491 1483 1484 1486 1488 1485 1481 1479 1480 1481 1482 1483 1484 1486 1488 1490 1492 1495 1499 1502 1506 1509 1513 1517 1520 1523 1527 1530 1533 1536 1539 1541 1543 1546 1547
1491 1493 1487 1486 1488 1490 1493 1495 1494 1488 1481 1483 1487 1489 1487 1485 1484 1484 1485 1485 1484 1484 1485 1487 1489 1491 1493 1495 1499 1503 1506 1510 1514 1517 1520 1524 1527 1530 1533 1535 1538 1540 1542 1543
1489 1486 1482 1485 1487 1490 1491 1493 1490 1489 1484 1482 1486 1493 1491 1489 1488 1488 1488 1488 1487 1486 1486 1486 1487 1489 1492 1494 1497 1501 1504 1508 1511 1514 1518 1521 1524 1527 1529 1531 1534 1536 1538 1539
1485 1481 1481 1483 1485 1486 1492 1483 1484 1485 1491 1496 1490 1504 1497 1492 1491 1491 1491 1491 1490 1489 1488 1488 1488 1489 1491 1493 1496 1499 1503 1506 1509 1512 1514 1517 1519 1523 1525 1528 1531 1533 1535 1535
1483 1478 1479 1482 1480 1480 1482 1477 1480 1483 1489 1496 1495 1503 1503 1494 1495 1496 1496 1494 1493 1492 1491 1490 1490 1491 1492 1494 1496 1499 1501 1504 1507 1510 1512 1514 1517 1520 1523 1525 1528 1530 1532 1533
1479 1475 1475 1475 1472 1473 1474 1478 1483 1491 1495 1504 1496 1503 1505 1499 1497 1498 1499 1498 1497 1495 1494 1493 1493 1493 1494 1495 1496 1499 1500 1503 1506 1508 1511 1512 1515 1518 1522 1525 1526 1528 1530 1531
1482 1476 1472 1471 1473 1473 1476 1490 1504 1504 1511 1508 1497 1502 1505 1499 1498 1500 1501 1501 1500 1498 1497 1496 1496 1496 1496 1497 1498 1499 1501 1504 1506 1508 1510 1512 1515 1518 1521 1523 1524 1527 1528 1529
1490 1488 1474 1471 1472 1475 1478 1485 1503 1509 1511 1509 1500 1504 1504 1501 1502 1502 1503 1503 1503 1502 1501 1500 1499 1500 1500 1501 1501 1502 1503 1505 1507 1508 1511 1513 1515 1517 1520 1522 1524 1526 1528 1530
1489 1487 1473 1470 1469 1471 1478 1484 1485 1498 1501 1510 1508 1504 1503 1503 1504 1505 1506 1506 1506 1506 1505 1504 1504 1504 1504 1505 1505 1506 1506 1507 1508 1510 1512 1514 1517 1519 1521 1522 1524 1527 1529 1531
1482 1487 1478 1473 1470 1472 1475 1481 1492 1500 1509 1512 1509 1507 1506 1504 1505 1507 1509 1509 1510 1510 1509 1509 1508 1508 1508 1509 1509 1509 1510 1510 1512 1513 1514 1516 1519 1521 1523 1524 1526 1529 1531 1533
1481 1488 1485 1480 1483 1484 1481 1485 1492 1500 1501 1511 1516 1514 1501 1501 1504 1507 1510 1512 1512 1513 1513 1513 1513 1513 1513 1513 1513 1513 1514 1515 1516 1517 1519 1520 1522 1525 1526 1528 1530 1533 1535 1536
1483 1490 1494 1487 1482 1480 1481 1486 1491 1498 1503 1506 1511 1514 1502 1501 1504 1508 1511 1514 1515 1516 1516 1517 1517 1517 1518 1518 1518 1519 1519 1520 1521 1523 1524 1525 1528 1529 1530 1532 1535 1537 1538 1539
1484 1492 1499 1496 1493 1488 1487 1487 1489 1495 1502 1507 1510 1512 1504 1504 1507 1510 1513 1515 1517 1518 1519 1520 1521 1522 1523 1523 1523 1524 1525 1526 1527 1529 1530 1532 1533 1534 1535 1537 1539 1541 1542 1542
1483 1494 1499 1502 1499 1494 1493 1491 1489 1493 1501 1503 1501 1503 1505 1506 1508 1511 1514 1516 1518 1520 1522 1523 1525 1526 1527 1528 1528 1529 1530 1532 1533 1535 1536 1537 1538 1539 1540 1541 1543 1544 1544 1544
1485 1496 1495 1495 1493 1494 1496 1495 1492 1493 1494 1498 1499 1499 1502 1505 1508 1512 1514 1517 1520 1522 1524 1526 1527 1529 1530 1532 1533 1534 1535 1537 1538 1539 1540 1541 1542 1543 1544 1545 1546 1546 1546 1546
1491 1497 1498 1500 1497 1497 1499 1499 1497 1496 1496 1497 1499 1503 1503 1506 1509 1513 1516 1518 1521 1524 1526 1529 1530 1532 1534 1536 1538 1539 1540 1541 1542 1543 1544 1545 1546 1547 1547 1548 1548 1549 1548 1548
1496 1499 1504 1506 1501 1499 1508 1507 1504 1503 1502 1502 1503 1506 1505 1508 1511 1514 1517 1520 1522 1525 1528 1530 1533 1535 1537 1539 1541 1542 1544 1545 1546 1547 1548 1549 1550 1550 1550 1550 1550 1550 1550 1549
1496 1503 1509 1509 1506 1513 1514 1506 1505 1506 1506 1505 1505 1507 1508 1511 1514 1517 1519 1521 1524 1527 1530 1533 1535 1538 1540 1542 1544 1546 1547 1549 1549 1550 1551 1552 1553 1553 1553 1553 1552 1552 1551 1550
1495 1501 1509 1514 1514 1513 1510 1507 1507 1507 1509 1509 1508 1510 1512 1513 1517 1521 1523 1524 1527 1530 1533 1535 1538 1541 1543 1546 1548 1549 1550 1551 1552 1553 1554 1555 1555 1555 1555 1554 1554 1553 1552 1550
1498 1501 1509 1514 1514 1517 1514 1508 1506 1509 1511 1511 1511 1512 1514 1515 1519 1526 1526 1527 1530 1533 1536 1539 1541 1544 1547 1549 1551 1552 1553 1554 1555 1556 1556 1557 1557 1557 1556 1556 1555 1554 1552 1551
1507 1510 1515 1517 1517 1516 1511 1508 1507 1514 1515 1512 1512 1514 1515 1517 1521 1526 1528 1531 1533 1536 1539 1542 1545 1547 1550 1552 1553 1554 1556 1557 1558 1558 1559 1559 1559 1558 1558 1557 1556 1554 1553 1551
1511 1514 1517 1520 1520 1519 1510 1508 1511 1513 1511 1512 1513 1515 1517 1519 1523 1527 1530 1534 1537 1539 1543 1545 1548 1550 1552 1555 1556 1557 1558 1559 1560 1560 1560 1560 1560 1559 1558 1558 1556 1555 1553 1551
1510 1512 1514 1517 1520 1514 1512 1511 1512 1511 1512 1513 1515 1517 1519 1522 1526 1530 1533 1537 1540 1543 1546 1548 1551 1553 1555 1557 1559 1559 1560 1561 1561 1562 1561 1561 1561 1560 1559 1558 1556 1555 1553 1550
1509 1509 1512 1514 1514 1513 1513 1513 1513 1513 1514 1515 1517 1519 1522 1525 1529 1533 1537 1540 1543 1546 1549 1551 1554 1555 1558 1559 1560 1561 1562 1562 1563 1563 1562 1562 1561 1560 1559 1558 1557 1555 1553 1551
1507 1509 1512 1513 1513 1514 1514 1515 1515 1516 1517 1518 1520 1523 1526 1528 1532 1536 1539 1543 1546 1549 1552 1554 1556 1558 1560 1561 1562 1563 1563 1564 1564 1563 1563 1562 1562 1561 1560 1558 1557 1555 1553 1551
1505 1507 1510 1511 1509 1511 1514 1515 1517 1518 1519 1521 1523 1527 1530 1532 1535 1539 1543 1546 1549 1552 1555 1557 1559 1560 1562 1562 1563 1564 1564 1564 1564 1564 1563 1562 1561 1560 1559 1558 1557 1555 1554 1552